Find Starlink 34477

NORAD ID: 64487 Int'l Des: 2025-133 Owner: SPXS Country: US Constellation: starlink operational
LEOCIRCULAR

Current View

Loading 3D Globe...

About Starlink 34477

Description loading...

Upcoming Passes

Passes for default location (London). Set your location on the main map for personalized predictions.

Altitude History

Loading altitude history...

Two-Line Element Set

1 64487U 25133R 26146.20377919 .00022486 00000-0 76841-3 0 9991
2 64487 53.1580 116.9305 0001358 69.8922 290.2224 15.30226016 53040
Epoch: May 26, 2026 • Age: 8 hours

Current Status

Altitude 487.8 km
Velocity 7.62 km/s
Sub-Earth Point -37.80°S, 8.38°E
Launch Date Jun 23, 2025
Age 0.9 years
Type internet

Technical Details

Classification Payload
Mass 575.00 kg
Dry Mass 530.00 kg
Total Mass 575.00 kg
Length 0.30 m
Diameter 4.10 m
Span 29.00 m
Shape Box + pan
Manufacturer SPXS
Bus Type Starlink V2MO
Phase Status In Orbit
Owner/State SPXS/US

Most Searched